Regional Weather Roundup
Issued by NWS

Home | Current Version | Previous Version | Text Only | Print | Product List | Glossary Off
Versions: 1 2 3 4 5 6 7 8 9 10 11 12 13 14 15 16 17 18 19 20 21 22 23 24 25 26 27 28 29 30 31 32 33 34 35 36 37 38 39 40 41 42 43 44 45 46 47 48 49 50

000
ASUS43 KBIS 290520
RWRND

NORTH DAKOTA REGIONAL WEATHER ROUNDUP
NATIONAL WEATHER SERVICE BISMARCK ND
1100 PM CST SUN DEC 28 2014

NOTE: "FAIR" INDICATES FEW OR NO CLOUDS BELOW 12,000 FEET WITH NO
SIGNIFICANT WEATHER AND/OR OBSTRUCTIONS TO VISIBILITY.


NDZ001>003-009>011-017-290600-
NORTHWEST NORTH DAKOTA

CITY           SKY/WX    TMP DP  RH WIND       PRES   REMARKS
WILLISTON      MOCLDY    -4 -10  75 N13       30.48R WCI -23
MINOT          CLEAR     -7 -13  75 NW9       30.47R WCI -24
MINOT AFB      PTCLDY   -10 -15  80 NW7       30.49R WCI -25
$$

NDZ018>021-031>035-040>046-290600-
SOUTHWEST NORTH DAKOTA

CITY           SKY/WX    TMP DP  RH WIND       PRES   REMARKS
BISMARCK       CLOUDY     2  -4  76 NE6       30.44R WCI  -9
DICKINSON      LGT SNOW   6   0  76 NE12      30.32R WCI  -9
GARRISON         N/A     -3  -9  75 NE6       30.45R WCI -15
HETTINGER ARPT LGT SNOW   6   2  83 NE14      30.30R FOG     WCI -11
$$

NDZ004>008-012>016-024-026-027-054-290600-
NORTHEAST NORTH DAKOTA

CITY           SKY/WX    TMP DP  RH WIND       PRES   REMARKS
GRAND FORKS    CLEAR     -9 -14  78 NW5       30.51R WCI -20
GRND FRKS AFB  PTCLDY    -6 -10  81 N9        30.51R WCI -22
DEVILS LAKE    PTCLDY    -8 -15  71 N9        30.46R WCI -25
$$

NDZ022-023-025-028>030-036>039-047>053-290600-
SOUTHEAST NORTH DAKOTA

CITY           SKY/WX    TMP DP  RH WIND       PRES   REMARKS
FARGO          CLEAR     -3 -10  72 N10       30.50R WCI -20
JAMESTOWN      MOCLDY    -5 -10  79 N6        30.44R WCI -18
$$



USA.gov is the U.S. government's official web portal to all federal, state and local government web resources and services.